{"data":{"norad_id":56725,"intl_designator":"2023-068R","name":"ONEWEB-0721","alt_names":[],"object_type":"PAYLOAD","status":"ACTIVE","operator":null,"country":"UK","launch_date":"2023-05-20","launch_site_code":"AFWTR","launch_vehicle":null,"mission":null,"orbit_class":"UNKNOWN","rcs_meters":null,"size_class":null,"mass_kg":null,"dimensions":null,"purposes":["comms"],"wikipedia_slug":null,"has_3d_model":false,"image_url":null,"decayed_at":null,"tle_current":{"epoch":"2026-09-19T20:45:35.518752Z","epoch_age_seconds":73219,"freshness":"FRESH","line1":"1 56725U 23068R   26262.86499443 -.00000006  00000+0 -48374-4 0  9996","line2":"2 56725  86.6744  55.2645 0001655  94.2350 265.8973 13.22475071170458","mean_motion":13.22475071,"eccentricity":0.0001655,"inclination_deg":86.6744,"raan_deg":55.2645,"arg_perigee_deg":94.235,"mean_anomaly_deg":265.8973,"bstar":-4.8374e-5,"rev_number":17045,"period_min":108.88674059551,"perigee_km":1174.0307872075,"apogee_km":1176.5309685251,"semimajor_km":7553.4178778663,"source":"CELESTRAK","updated_at":"2026-09-20T09:00:44.797609Z"}}}